Погода в Смердомском

Россия / Вологодская область     59°10′34″N   35°03′43″E
темп.,
°C
ветер,
м/с
пор.,
м/с
влажн.,
%
обл.,
%
осадки,
мм/ч
давл.,
гПа
погр.,
м
5 августа, чт
чт500:00+13сз0163100 0.0 101610
03:00+13зюз1167100 0.0 101720
06:00+13зюз1173100 0.0 101728
09:00+18в115382 0.0 1017569
12:00+21юв1237100 0.0 10162371
15:00+19вюв2450100 0.0 1016328
18:00+15зюз2476100 0.1 1016112
21:00+12ссз3695100 1.6 1016153
6 августа, пт
пт600:00+12всв41098100 3.1 1015448
03:00+12св51296100 12.3 1014709
06:00+11св4998100 1.9 1014651
09:00+11всв4898100 2.1 1014576
12:00+12всв4897100 0.1 1014419
15:00+13св4793100 0.1 1014459
18:00+13св4991100 0.0 1014443
21:00+13всв41091100 0.0 1013490
7 августа, сб
сб700:00+13всв41094100 0.0 1013445
03:00+14всв41195100 0.0 1012557
06:00+14всв41199100 3.6 1011481
09:00+15в51299100 7.9 1010726
12:00+15в51398100 2.7 1011733
15:00+15в61398100 4.6 1010787
18:00+15вюв51398100 1.2 1010764
21:00+15в51298100 1.4 1010543
8 августа, вс
вс800:00+16в31099100 1.9 1009622
03:00+17вюв3899100 2.2 1009368
06:00+17ююв2599100 0.3 1009281
09:00+18юз248458 0.4 1010508
12:00+21ю3357100 0.1 10111444
15:00+20ю347337 0.3 1012458
18:00+19ююз248751 2.5 1013390
21:00+15ююв119421 3.1 101411
9 августа, пн
пн900:00+14ююз119829 1.9 101412
03:00+13юз119812 1.9 101513
06:00+13ююз119812 0.0 101540
09:00+18ююз238643 0.0 1015458
12:00+21ююз137062 0.4 1014932
15:00+24ю245699 0.6 10141420
18:00+21ю2576100 0.1 1014147
21:00+18юв228899 0.4 101429